AAL2488 KPBI-KCLT

Flight info

Callsign AAL2488
Flight time 1h 33m
Altitude 35000
Route TBIRD7 VIYAP CHECR STOCR4
Aircraft A321/M-SDE3FGHIRWY/LB1

Departure

Time 2026-04-20 16:06
Airport Palm Beach International Airport (KPBI)

Arrival

Time 2026-04-20 17:40
Airport Charlotte Douglas International Airport (KCLT)
Time Latitude Longitude Altitude Speed Heading
2026-04-20 15:45 26.68634 -80.09351 24 ft 0 kts 37°
2026-04-20 15:56 26.68624 -80.09360 22 ft 4 kts 38°
2026-04-20 15:56 26.68603 -80.09378 24 ft 4 kts 45°
2026-04-20 15:56 26.68588 -80.09401 23 ft 4 kts 81°
2026-04-20 15:57 26.68592 -80.09425 22 ft 3 kts 136°
2026-04-20 15:57 26.68594 -80.09427 22 ft 0 kts 138°
2026-04-20 16:00 26.68592 -80.09426 22 ft 1 kts 138°
2026-04-20 16:01 26.68583 -80.09417 22 ft 2 kts 138°
2026-04-20 16:01 26.68568 -80.09400 22 ft 4 kts 131°
2026-04-20 16:01 26.68548 -80.09372 23 ft 5 kts 128°
2026-04-20 16:01 26.68520 -80.09338 22 ft 6 kts 146°
2026-04-20 16:02 26.68487 -80.09349 22 ft 6 kts 240°
2026-04-20 16:02 26.68442 -80.09389 22 ft 10 kts 192°
2026-04-20 16:02 26.68371 -80.09397 22 ft 10 kts 244°
2026-04-20 16:02 26.68370 -80.09497 22 ft 15 kts 274°
2026-04-20 16:03 26.68378 -80.09628 22 ft 19 kts 274°
2026-04-20 16:03 26.68386 -80.09792 22 ft 23 kts 272°
2026-04-20 16:03 26.68394 -80.09974 22 ft 24 kts 273°
2026-04-20 16:03 26.68403 -80.10162 22 ft 24 kts 273°
2026-04-20 16:04 26.68410 -80.10345 22 ft 21 kts 272°
2026-04-20 16:04 26.68416 -80.10474 22 ft 14 kts 273°
2026-04-20 16:04 26.68421 -80.10589 22 ft 15 kts 272°
2026-04-20 16:04 26.68426 -80.10711 21 ft 16 kts 273°
2026-04-20 16:05 26.68426 -80.10801 21 ft 10 kts 249°
2026-04-20 16:05 26.68361 -80.10822 21 ft 11 kts 179°
2026-04-20 16:05 26.68317 -80.10810 21 ft 4 kts 104°
2026-04-20 16:05 26.68318 -80.10776 21 ft 6 kts 89°
2026-04-20 16:06 26.68312 -80.10613 22 ft 52 kts 92°
2026-04-20 16:06 26.68283 -80.09943 22 ft 118 kts 92°
2026-04-20 16:06 26.68233 -80.08838 144 ft 155 kts 92°
2026-04-20 16:06 26.68193 -80.07676 899 ft 149 kts 86°
2026-04-20 16:07 26.68180 -80.06497 1498 ft 158 kts 88°
2026-04-20 16:07 26.68302 -80.05206 1960 ft 176 kts 71°
2026-04-20 16:07 26.68841 -80.03898 2435 ft 196 kts 60°
2026-04-20 16:07 26.69507 -80.02481 2898 ft 218 kts 62°
2026-04-20 16:08 26.70259 -80.00877 3199 ft 248 kts 61°
2026-04-20 16:08 26.71193 -79.99205 3787 ft 258 kts 48°
2026-04-20 16:08 26.72558 -79.97894 4471 ft 262 kts 30°
2026-04-20 16:08 26.74261 -79.97130 5130 ft 267 kts 11°
2026-04-20 16:09 26.76115 -79.96878 5831 ft 270 kts 357°
2026-04-20 16:09 26.77940 -79.97331 6531 ft 272 kts 333°
2026-04-20 16:09 26.79435 -79.98605 7222 ft 272 kts 308°
2026-04-20 16:09 26.80337 -80.00473 7911 ft 277 kts 289°
2026-04-20 16:10 26.80963 -80.02520 8625 ft 280 kts 288°
2026-04-20 16:10 26.81597 -80.04600 9333 ft 284 kts 288°
2026-04-20 16:10 26.82241 -80.06708 10033 ft 288 kts 288°
2026-04-20 16:10 26.82912 -80.08887 10349 ft 307 kts 288°
2026-04-20 16:11 26.83635 -80.11231 10480 ft 330 kts 288°
2026-04-20 16:11 26.84403 -80.13713 10802 ft 344 kts 288°
2026-04-20 16:11 26.85193 -80.16275 11336 ft 351 kts 288°
2026-04-20 16:11 26.85996 -80.18880 11939 ft 356 kts 288°
2026-04-20 16:12 26.86807 -80.21504 12717 ft 357 kts 288°
2026-04-20 16:12 26.87616 -80.24134 13559 ft 358 kts 288°
2026-04-20 16:12 26.88426 -80.26775 14248 ft 359 kts 288°
2026-04-20 16:12 26.89231 -80.29399 14845 ft 361 kts 288°
2026-04-20 16:13 26.90094 -80.32082 15479 ft 363 kts 292°
2026-04-20 16:13 26.91357 -80.34506 16073 ft 368 kts 304°
2026-04-20 16:13 26.93137 -80.36594 16694 ft 375 kts 317°
2026-04-20 16:13 26.95348 -80.38187 17289 ft 383 kts 330°
2026-04-20 16:14 26.97840 -80.39309 17871 ft 388 kts 334°
2026-04-20 16:14 27.00370 -80.40388 18447 ft 390 kts 334°
2026-04-20 16:14 27.02916 -80.41472 18958 ft 392 kts 334°
2026-04-20 16:14 27.05470 -80.42563 19490 ft 394 kts 334°
2026-04-20 16:15 27.08029 -80.43659 20029 ft 394 kts 334°
2026-04-20 16:15 27.10594 -80.44762 20580 ft 395 kts 334°
2026-04-20 16:15 27.13165 -80.45871 21116 ft 396 kts 334°
2026-04-20 16:15 27.15745 -80.46984 21646 ft 397 kts 333°
2026-04-20 16:16 27.18315 -80.48121 22168 ft 398 kts 332°
2026-04-20 16:16 27.20881 -80.49295 22662 ft 399 kts 332°
2026-04-20 16:16 27.23450 -80.50488 23148 ft 400 kts 332°
2026-04-20 16:16 27.26025 -80.51692 23616 ft 401 kts 332°
2026-04-20 16:17 27.28609 -80.52901 24055 ft 403 kts 332°
2026-04-20 16:17 27.31204 -80.54108 24474 ft 404 kts 332°
2026-04-20 16:17 27.33798 -80.55340 24868 ft 405 kts 331°
2026-04-20 16:17 27.36343 -80.56610 25242 ft 405 kts 330°
2026-04-20 16:18 27.38941 -80.57947 25638 ft 406 kts 329°
2026-04-20 16:18 27.41512 -80.59284 26040 ft 408 kts 329°
2026-04-20 16:18 27.44060 -80.60604 26465 ft 409 kts 329°
2026-04-20 16:18 27.46652 -80.61942 26826 ft 410 kts 329°
2026-04-20 16:19 27.49251 -80.63274 27168 ft 412 kts 329°
2026-04-20 16:19 27.51780 -80.64754 27502 ft 407 kts 322°
2026-04-20 16:19 27.54030 -80.66666 27817 ft 403 kts 315°
2026-04-20 16:19 27.56141 -80.68759 28158 ft 405 kts 314°
2026-04-20 16:20 27.58254 -80.70858 28505 ft 406 kts 314°
2026-04-20 16:20 27.60374 -80.72965 28846 ft 407 kts 314°
2026-04-20 16:20 27.62508 -80.75084 29180 ft 409 kts 315°
2026-04-20 16:20 27.64644 -80.77201 29538 ft 409 kts 315°
2026-04-20 16:21 27.66777 -80.79314 30003 ft 407 kts 315°
2026-04-20 16:21 27.68896 -80.81413 30440 ft 404 kts 314°
2026-04-20 16:21 27.71003 -80.83500 30800 ft 403 kts 314°
2026-04-20 16:21 27.73110 -80.85586 31132 ft 403 kts 314°
2026-04-20 16:22 27.75213 -80.87671 31455 ft 402 kts 313°
2026-04-20 16:22 27.77311 -80.89757 31813 ft 401 kts 313°
2026-04-20 16:22 27.79399 -80.91837 32205 ft 399 kts 313°
2026-04-20 16:22 27.81638 -80.93723 32584 ft 405 kts 321°
2026-04-20 16:23 27.84195 -80.95136 32908 ft 416 kts 331°
2026-04-20 16:23 27.87031 -80.95989 33221 ft 429 kts 340°
2026-04-20 16:23 27.89976 -80.96543 33498 ft 429 kts 340°
2026-04-20 16:23 27.92926 -80.97101 33790 ft 430 kts 340°
2026-04-20 16:24 27.95874 -80.97667 34080 ft 430 kts 340°
2026-04-20 16:24 27.98817 -80.98237 34365 ft 430 kts 340°
2026-04-20 16:24 28.01760 -80.98809 34675 ft 428 kts 340°
2026-04-20 16:24 28.04693 -80.99379 34972 ft 427 kts 340°
2026-04-20 16:25 28.07621 -80.99949 35183 ft 426 kts 339°
2026-04-20 16:25 28.10527 -81.00512 35183 ft 421 kts 339°
2026-04-20 16:25 28.16269 -81.01624 35181 ft 418 kts 339°
2026-04-20 16:26 28.21962 -81.02740 35191 ft 417 kts 339°
2026-04-20 16:26 28.27722 -81.03871 35206 ft 417 kts 339°
2026-04-20 16:27 28.33446 -81.04990 35212 ft 418 kts 339°
2026-04-20 16:27 28.38950 -81.06630 35270 ft 401 kts 329°
2026-04-20 16:28 28.44121 -81.08869 35263 ft 399 kts 329°
2026-04-20 16:28 28.49302 -81.11105 35262 ft 398 kts 329°
2026-04-20 16:29 28.54472 -81.13339 35258 ft 397 kts 329°
2026-04-20 16:29 28.59636 -81.15571 35256 ft 397 kts 329°
2026-04-20 16:30 28.64788 -81.17801 35264 ft 396 kts 329°
2026-04-20 16:30 28.69922 -81.20033 35259 ft 391 kts 330°
2026-04-20 16:31 28.74984 -81.22222 35242 ft 389 kts 329°
2026-04-20 16:31 28.80042 -81.24427 35245 ft 389 kts 329°
2026-04-20 16:32 28.85103 -81.26634 35253 ft 390 kts 329°
2026-04-20 16:32 28.90187 -81.28829 35258 ft 393 kts 332°
2026-04-20 16:33 28.92891 -81.29539 35260 ft 407 kts 342°
2026-04-20 16:33 28.95741 -81.29790 35270 ft 412 kts 345°
2026-04-20 16:33 29.01427 -81.30224 35306 ft 412 kts 345°
2026-04-20 16:34 29.07148 -81.30676 35303 ft 412 kts 345°
2026-04-20 16:34 29.12905 -81.31133 35297 ft 412 kts 345°
2026-04-20 16:35 29.18596 -81.31587 35292 ft 412 kts 345°
2026-04-20 16:35 29.24318 -81.32047 35286 ft 412 kts 345°
2026-04-20 16:36 29.30089 -81.32493 35279 ft 414 kts 345°
2026-04-20 16:36 29.34875 -81.32783 35284 ft 415 kts 346°
2026-04-20 16:37 29.41591 -81.33143 35287 ft 416 kts 346°
2026-04-20 16:37 29.47366 -81.33464 35289 ft 416 kts 346°
2026-04-20 16:38 29.53149 -81.33810 35291 ft 416 kts 346°
2026-04-20 16:38 29.57952 -81.34096 35316 ft 416 kts 346°
2026-04-20 16:39 29.63744 -81.34444 35310 ft 416 kts 346°
2026-04-20 16:39 29.69534 -81.34783 35319 ft 417 kts 346°
2026-04-20 16:40 29.75324 -81.35132 35328 ft 417 kts 346°
2026-04-20 16:40 29.81119 -81.35482 35331 ft 417 kts 346°
2026-04-20 16:41 29.86913 -81.35828 35340 ft 416 kts 345°
2026-04-20 16:41 29.92692 -81.36164 35335 ft 416 kts 346°
2026-04-20 16:42 29.98479 -81.36501 35334 ft 417 kts 346°
2026-04-20 16:42 30.04270 -81.36844 35335 ft 417 kts 345°
2026-04-20 16:43 30.10062 -81.37194 35330 ft 417 kts 345°
2026-04-20 16:43 30.15847 -81.37541 35326 ft 415 kts 345°
2026-04-20 16:44 30.21608 -81.37887 35313 ft 415 kts 345°
2026-04-20 16:44 30.27379 -81.38231 35330 ft 415 kts 345°
2026-04-20 16:45 30.33152 -81.38579 35335 ft 416 kts 345°
2026-04-20 16:45 30.38934 -81.38926 35338 ft 416 kts 345°
2026-04-20 16:46 30.44717 -81.39275 35340 ft 416 kts 345°
2026-04-20 16:46 30.50470 -81.39600 35342 ft 417 kts 345°
2026-04-20 16:47 30.56265 -81.39893 35362 ft 417 kts 345°
2026-04-20 16:47 30.62062 -81.40188 35364 ft 417 kts 345°
2026-04-20 16:48 30.67856 -81.40502 35403 ft 417 kts 345°
2026-04-20 16:48 30.73631 -81.40814 35361 ft 414 kts 345°
2026-04-20 16:49 30.79394 -81.41117 35352 ft 414 kts 345°
2026-04-20 16:49 30.85151 -81.41417 35346 ft 415 kts 345°
2026-04-20 16:50 30.90918 -81.41722 35342 ft 415 kts 345°
2026-04-20 16:50 30.96678 -81.42031 35385 ft 415 kts 344°
2026-04-20 16:51 31.02432 -81.42337 35353 ft 413 kts 344°
2026-04-20 16:51 31.08181 -81.42645 35354 ft 414 kts 344°
2026-04-20 16:52 31.13937 -81.42952 35351 ft 414 kts 344°
2026-04-20 16:52 31.19692 -81.43266 35351 ft 414 kts 344°
2026-04-20 16:53 31.25513 -81.43189 35385 ft 433 kts 356°
2026-04-20 16:53 31.28473 -81.42275 35360 ft 448 kts
2026-04-20 16:53 31.31414 -81.41068 35356 ft 448 kts
2026-04-20 16:54 31.37300 -81.38653 35346 ft 449 kts
2026-04-20 16:54 31.43200 -81.36249 35347 ft 449 kts
2026-04-20 16:55 31.49108 -81.33842 35346 ft 450 kts
2026-04-20 16:55 31.55021 -81.31421 35375 ft 450 kts
2026-04-20 16:56 31.60925 -81.29019 35358 ft 449 kts
2026-04-20 16:56 31.66825 -81.26605 35360 ft 449 kts
2026-04-20 16:57 31.72724 -81.24181 35351 ft 449 kts
2026-04-20 16:57 31.78619 -81.21754 35367 ft 448 kts
2026-04-20 16:58 31.84482 -81.19342 35326 ft 445 kts
2026-04-20 16:58 31.90294 -81.16963 35328 ft 446 kts
2026-04-20 16:59 31.96154 -81.14554 35331 ft 446 kts
2026-04-20 16:59 32.02019 -81.12127 35336 ft 447 kts
2026-04-20 17:00 32.10809 -81.08491 35345 ft 446 kts
2026-04-20 17:01 32.16666 -81.06064 35343 ft 446 kts
2026-04-20 17:01 32.22534 -81.03638 35344 ft 447 kts
2026-04-20 17:02 32.28409 -81.01203 35345 ft 448 kts
2026-04-20 17:02 32.34284 -80.98753 35382 ft 449 kts
2026-04-20 17:03 32.40174 -80.96288 35362 ft 449 kts
2026-04-20 17:03 32.46071 -80.93830 35359 ft 449 kts
2026-04-20 17:04 32.51971 -80.91371 35353 ft 450 kts
2026-04-20 17:04 32.57874 -80.88907 35370 ft 451 kts
2026-04-20 17:05 32.63790 -80.86428 35338 ft 451 kts
2026-04-20 17:05 32.69712 -80.83944 35331 ft 452 kts
2026-04-20 17:05 32.72659 -80.82522 35325 ft 467 kts 13°
2026-04-20 17:06 32.75544 -80.80683 35339 ft 471 kts 14°
2026-04-20 17:06 32.81266 -80.76956 35339 ft 472 kts 14°
2026-04-20 17:07 32.87034 -80.73183 35340 ft 472 kts 14°
2026-04-20 17:07 32.92804 -80.69429 35337 ft 473 kts 14°
2026-04-20 17:08 32.98581 -80.65677 35340 ft 474 kts 14°
2026-04-20 17:08 33.04374 -80.61904 35331 ft 474 kts 14°
2026-04-20 17:09 33.10168 -80.58113 35329 ft 475 kts 14°
2026-04-20 17:09 33.15964 -80.54323 35330 ft 475 kts 14°
2026-04-20 17:10 33.21757 -80.50527 35334 ft 476 kts 15°
2026-04-20 17:10 33.27563 -80.46713 35333 ft 476 kts 15°
2026-04-20 17:11 33.33372 -80.42888 35355 ft 477 kts 15°
2026-04-20 17:11 33.39183 -80.39059 35342 ft 477 kts 15°
2026-04-20 17:12 33.44997 -80.35233 35346 ft 477 kts 15°
2026-04-20 17:12 33.50841 -80.31382 34803 ft 485 kts 15°
2026-04-20 17:12 33.53799 -80.29435 34086 ft 487 kts 15°
2026-04-20 17:13 33.56775 -80.27467 33282 ft 489 kts 16°
2026-04-20 17:13 33.59760 -80.25486 32579 ft 491 kts 17°
2026-04-20 17:13 33.62763 -80.23491 31725 ft 495 kts 18°
2026-04-20 17:13 33.65746 -80.21508 30851 ft 496 kts 18°
2026-04-20 17:14 33.68747 -80.19500 29911 ft 492 kts 18°
2026-04-20 17:14 33.71712 -80.17513 29030 ft 484 kts 19°
2026-04-20 17:14 33.74611 -80.15565 28413 ft 470 kts 19°
2026-04-20 17:14 33.77426 -80.13676 27917 ft 458 kts 19°
2026-04-20 17:15 33.80194 -80.11829 27434 ft 454 kts 19°
2026-04-20 17:15 33.82949 -80.10001 26974 ft 449 kts 20°
2026-04-20 17:15 33.85665 -80.08199 26559 ft 443 kts 20°
2026-04-20 17:15 33.88349 -80.06415 26053 ft 439 kts 20°
2026-04-20 17:16 33.91006 -80.04644 25587 ft 434 kts 21°
2026-04-20 17:16 33.93633 -80.02885 25141 ft 430 kts 21°
2026-04-20 17:16 33.96280 -80.01329 24652 ft 414 kts 12°
2026-04-20 17:16 33.99003 -80.00499 23970 ft 396 kts 359°
2026-04-20 17:17 34.01698 -80.00393 23100 ft 381 kts 348°
2026-04-20 17:17 34.04263 -80.00930 22292 ft 368 kts 336°
2026-04-20 17:17 34.06575 -80.02009 21984 ft 349 kts 328°
2026-04-20 17:17 34.08753 -80.03290 21756 ft 348 kts 328°
2026-04-20 17:18 34.10923 -80.04560 21525 ft 346 kts 328°
2026-04-20 17:18 34.13086 -80.05824 21191 ft 344 kts 328°
2026-04-20 17:18 34.15229 -80.07081 20829 ft 341 kts 328°
2026-04-20 17:18 34.17356 -80.08332 20466 ft 339 kts 328°
2026-04-20 17:19 34.19466 -80.09578 20106 ft 336 kts 328°
2026-04-20 17:19 34.21560 -80.10818 19745 ft 334 kts 328°
2026-04-20 17:19 34.23640 -80.12048 19390 ft 332 kts 328°
2026-04-20 17:19 34.25705 -80.13270 19038 ft 329 kts 328°
2026-04-20 17:20 34.27757 -80.14484 18684 ft 327 kts 328°
2026-04-20 17:20 34.29791 -80.15685 18303 ft 325 kts 328°
2026-04-20 17:20 34.31796 -80.16872 17800 ft 325 kts 328°
2026-04-20 17:20 34.33830 -80.18082 17145 ft 326 kts 328°
2026-04-20 17:21 34.35842 -80.19281 16818 ft 319 kts 329°
2026-04-20 17:21 34.37826 -80.20461 16595 ft 317 kts 329°
2026-04-20 17:21 34.39808 -80.21638 16285 ft 317 kts 329°
2026-04-20 17:21 34.41784 -80.22811 15952 ft 316 kts 329°
2026-04-20 17:22 34.43755 -80.23981 15614 ft 315 kts 329°
2026-04-20 17:22 34.45722 -80.25150 15316 ft 314 kts 329°
2026-04-20 17:22 34.47681 -80.26317 14982 ft 313 kts 329°
2026-04-20 17:22 34.49635 -80.27480 14646 ft 313 kts 329°
2026-04-20 17:23 34.51585 -80.28641 14317 ft 312 kts 329°
2026-04-20 17:23 34.53530 -80.29800 13973 ft 311 kts 329°
2026-04-20 17:23 34.55462 -80.30954 13641 ft 308 kts 329°
2026-04-20 17:23 34.57360 -80.32084 13334 ft 301 kts 330°
2026-04-20 17:24 34.59224 -80.33194 12998 ft 296 kts 330°
2026-04-20 17:24 34.60986 -80.34437 12695 ft 290 kts 320°
2026-04-20 17:24 34.62532 -80.35930 12541 ft 278 kts 319°
2026-04-20 17:24 34.64023 -80.37370 12260 ft 270 kts 319°
2026-04-20 17:25 34.65481 -80.38772 11843 ft 265 kts 320°
2026-04-20 17:25 34.66929 -80.40163 11542 ft 264 kts 320°
2026-04-20 17:25 34.68368 -80.41546 11267 ft 263 kts 320°
2026-04-20 17:25 34.69797 -80.42927 10990 ft 262 kts 320°
2026-04-20 17:26 34.71214 -80.44310 10713 ft 261 kts 320°
2026-04-20 17:26 34.72623 -80.45692 10435 ft 260 kts 320°
2026-04-20 17:26 34.73552 -80.46606 10253 ft 259 kts 320°
2026-04-20 17:26 34.74949 -80.47984 9958 ft 258 kts 320°
2026-04-20 17:27 34.76808 -80.49819 9587 ft 257 kts 320°
2026-04-20 17:27 34.77724 -80.50722 9399 ft 256 kts 320°
2026-04-20 17:27 34.79111 -80.52086 9132 ft 255 kts 321°
2026-04-20 17:27 34.80492 -80.53441 8859 ft 255 kts 321°
2026-04-20 17:28 34.81867 -80.54789 8583 ft 252 kts 321°
2026-04-20 17:28 34.83221 -80.56123 8307 ft 249 kts 320°
2026-04-20 17:28 34.84563 -80.57450 8043 ft 248 kts 321°
2026-04-20 17:28 34.85896 -80.58770 7771 ft 245 kts 320°
2026-04-20 17:29 34.87208 -80.60070 7506 ft 241 kts 320°
2026-04-20 17:29 34.88317 -80.61563 7240 ft 238 kts 301°
2026-04-20 17:29 34.88837 -80.63443 7013 ft 234 kts 279°
2026-04-20 17:29 34.88714 -80.65379 6784 ft 228 kts 262°
2026-04-20 17:30 34.88363 -80.67239 6505 ft 222 kts 263°
2026-04-20 17:30 34.88029 -80.69047 6255 ft 216 kts 262°
2026-04-20 17:30 34.87707 -80.70820 6073 ft 213 kts 263°
2026-04-20 17:30 34.87452 -80.72587 6012 ft 212 kts 267°
2026-04-20 17:31 34.87310 -80.74374 6017 ft 212 kts 270°
2026-04-20 17:31 34.87207 -80.76165 6018 ft 212 kts 270°
2026-04-20 17:31 34.87108 -80.77950 6022 ft 212 kts 270°
2026-04-20 17:31 34.87001 -80.79740 6014 ft 212 kts 270°
2026-04-20 17:32 34.86884 -80.81529 6014 ft 212 kts 269°
2026-04-20 17:32 34.86761 -80.83323 6017 ft 213 kts 269°
2026-04-20 17:32 34.86637 -80.85124 6012 ft 213 kts 270°
2026-04-20 17:32 34.86887 -80.86851 6010 ft 207 kts 300°
2026-04-20 17:33 34.87845 -80.88137 6026 ft 207 kts 320°
2026-04-20 17:33 34.88983 -80.89217 6024 ft 208 kts 324°
2026-04-20 17:33 34.90235 -80.90101 6019 ft 208 kts 330°
2026-04-20 17:33 34.91543 -80.90837 6009 ft 211 kts 342°
2026-04-20 17:34 34.92984 -80.91097 5977 ft 212 kts 351°
2026-04-20 17:34 34.94478 -80.91228 5749 ft 213 kts 352°
2026-04-20 17:34 34.95939 -80.91347 5477 ft 213 kts 352°
2026-04-20 17:34 34.97423 -80.91472 5208 ft 215 kts 351°
2026-04-20 17:35 34.98909 -80.91598 4908 ft 212 kts 351°
2026-04-20 17:35 35.00368 -80.91722 4629 ft 209 kts 352°
2026-04-20 17:35 35.01805 -80.91846 4366 ft 204 kts 352°
2026-04-20 17:35 35.03185 -80.91962 4077 ft 193 kts 351°
2026-04-20 17:36 35.04486 -80.92072 3819 ft 183 kts 353°
2026-04-20 17:36 35.05762 -80.92182 3566 ft 182 kts 352°
2026-04-20 17:36 35.07024 -80.92290 3332 ft 181 kts 351°
2026-04-20 17:36 35.08267 -80.92397 3087 ft 180 kts 349°
2026-04-20 17:37 35.09515 -80.92501 2967 ft 179 kts 351°
2026-04-20 17:37 35.10755 -80.92607 2547 ft 176 kts 350°
2026-04-20 17:37 35.11923 -80.92717 2418 ft 159 kts 351°
2026-04-20 17:37 35.12984 -80.92797 2175 ft 148 kts 351°
2026-04-20 17:38 35.14001 -80.92880 1979 ft 144 kts 349°
2026-04-20 17:38 35.14997 -80.92960 1759 ft 143 kts 350°
2026-04-20 17:38 35.15982 -80.93044 1534 ft 146 kts 351°
2026-04-20 17:38 35.16996 -80.93132 1373 ft 146 kts 352°
2026-04-20 17:39 35.18018 -80.93249 1185 ft 148 kts 353°
2026-04-20 17:39 35.19052 -80.93326 965 ft 148 kts 353°
2026-04-20 17:39 35.20073 -80.93409 772 ft 147 kts 352°
2026-04-20 17:39 35.21013 -80.93496 732 ft 113 kts 356°
2026-04-20 17:40 35.21495 -80.93534 735 ft 28 kts 356°
2026-04-20 17:40 35.21566 -80.93581 735 ft 12 kts 283°
2026-04-20 17:40 35.21576 -80.93691 731 ft 14 kts 300°
2026-04-20 17:40 35.21639 -80.93786 732 ft 15 kts 309°
2026-04-20 17:41 35.21712 -80.93886 733 ft 16 kts 314°
2026-04-20 17:41 35.21772 -80.93948 732 ft 10 kts 316°
2026-04-20 17:41 35.21754 -80.94015 731 ft 10 kts 227°
2026-04-20 17:41 35.21703 -80.94083 732 ft 12 kts 228°
2026-04-20 17:42 35.21646 -80.94162 732 ft 13 kts 229°
2026-04-20 17:42 35.21631 -80.94271 730 ft 14 kts 275°
2026-04-20 17:42 35.21656 -80.94366 731 ft 11 kts 329°
2026-04-20 17:42 35.21735 -80.94377 732 ft 11 kts 357°
2026-04-20 17:43 35.21805 -80.94384 732 ft 8 kts 349°
2026-04-20 17:43 35.21824 -80.94430 732 ft 7 kts 278°
2026-04-20 17:43 35.21828 -80.94460 732 ft 1 kts 278°
2026-04-20 17:43 35.21829 -80.94471 732 ft 0 kts 278°
2026-04-20 17:44 35.21830 -80.94476 732 ft 0 kts 278°
2026-04-20 17:44 35.21830 -80.94477 732 ft 0 kts 278°